This demonstration page uses our WeatherBlox Daily Observations layout. Learn more.

Left ArrowRight Arrow

36.17497, -115.13722

Hourly Observations for October 15, 2016

Temp ( °F °C ) Dew Point ( °F °C ) Humidity (%) Winds ( mph kmh ) Pressure ( in mb ) Visibility ( mi km ) Precip ( " mm )
12:53 am 00:53 Clear 80 26.7 27 -2.8 14 14 SSW 18 30 29.78 1008 10 16.0934 0 0
1:53 am 01:53 Clear 80 26.7 29 -1.7 15 15 SSW 15 24 29.78 1009 10 16.0934 0 0
2:53 am 02:53 Clear 77 25 28 -2.2 16 16 S 9 15 29.77 1008 10 16.0934 0 0
3:53 am 03:53 Clear 77 25 30 -1.1 18 18 S 17 28 29.76 1008 10 16.0934 0 0
4:53 am 04:53 Clear 76 24.4 31 -0.6 19 19 SSW 14 22 29.75 1008 10 16.0934 0 0
5:53 am 05:53 Clear 76 24.4 34 1.1 22 22 WSW 22 35 29.77 1008 10 16.0934 0 0
6:53 am 06:53 Sunny 75 23.9 34 1.1 22 22 SSW 12 19 29.81 1009 10 16.0934 0 0
7:53 am 07:53 Sunny 76 24.4 35 1.7 23 23 SSE 17 28 29.82 1010 10 16.0934 0 0
8:53 am 08:53 Sunny 78 25.6 38 3.3 24 24 S 20 31 29.83 1010 10 16.0934 0 0
9:53 am 09:53 Sunny 81 27.2 40 4.4 23 23 SSW 18 30 29.83 1010 10 16.0934 0 0
10:53 am 10:53 Sunny 83 28.3 41 5 23 23 S 20 31 29.82 1010 10 16.0934 0 0
11:53 am 11:53 Sunny 87 30.6 43 6.1 21 21 SSW 18 30 29.81 1009 10 16.0934 0 0
12:53 pm 12:53 Sunny 88 31.1 41 5 19 19 SW 23 37 29.78 1008 10 16.0934 0 0
1:53 pm 13:53 Sunny 88 31.1 42 5.6 20 20 SW 30 48 29.73 1007 10 16.0934 0 0
2:53 pm 14:53 Sunny 88 31.1 44 6.7 22 22 SW 26 43 29.72 1007 10 16.0934 0 0
3:53 pm 15:53 Sunny 88 31 43 6 21 21 SW 24 39 29.59 1002 10 16.0934 0 0
4:53 pm 16:53 Sunny 86 30 44 6.7 23 23 SW 31 50 29.7 1006 10 16.0934 0 0
5:53 pm 17:53 Sunny 84 28.9 43 6.1 24 24 SW 23 37 29.73 1007 10 16.0934 0 0
6:53 pm 18:53 Clear 82 27.8 44 6.7 26 26 SW 18 30 29.76 1008 10 16.0934 0 0
7:53 pm 19:53 Clear 81 27.2 45 7.2 28 28 SSW 17 28 29.77 1008 10 16.0934 0 0
8:53 pm 20:53 Clear 80 26.7 46 7.8 30 30 SSW 20 31 29.77 1008 10 16.0934 0 0
9:53 pm 21:53 Clear 79 26.1 47 8.3 32 32 SSW 23 37 29.77 1008 10 16.0934 0 0
10:53 pm 22:53 Clear 77 25 48 8.9 36 36 SSW 30 48 29.77 1008 10 16.0934 0 0
11:53 pm 23:53 Clear 76 24.4 49 9.4 39 39 SSW 29 46 29.76 1008 10 16.0934 0 0

Powered by AerisWeather